GW1193 Weather Reports


Display with metric or nautical units.
time (UTC)temp
F
wind
direction
speed
MPH
gust
MPH
rain 1hr
in
rain 24hr
in
rain mn
in
humidity
%
barometer
mb
20260503172550 59 0 0.0 2.0 0.00 0.00 0.00 77 1014.7
20260503172050 59 299 0.0 2.0 0.00 0.00 0.00 76 1014.7
20260503171553 58 156 0.0 3.0 0.00 0.00 0.00 79 1014.6
20260503171050 58 293 1.0 3.0 0.00 0.00 0.00 78 1014.5
20260503170550 58 269 0.0 3.0 0.00 0.00 0.00 78 1014.6
20260503150548 54 0 0.0 1.0 0.00 0.00 0.00 87 1013.9
20260503131049 52 0 0.0 2.0 0.00 0.00 0.00 91 1012.6
20260503130549 52 0 0.0 2.0 0.00 0.00 0.00 91 1012.5
20260503130108 52 0 0.0 2.0 0.00 0.00 0.00 92 1012.5
20260503110556 52 0 0.0 2.0 0.00 0.00 0.00 90 1012.5
20260503100109 53 0 0.0 3.0 0.00 0.00 0.00 89 1012.6
20260503081558 53 0 0.0 1.0 0.00 0.00 0.00 90 1013.4
20260503081053 53 0 0.0 1.0 0.00 0.00 0.00 90 1013.5
20260503080556 53 0 0.0 1.0 0.00 0.00 0.00 90 1013.4
20260503072554 53 0 0.0 1.0 0.00 0.00 0.00 90 1013.4
20260503072053 53 125 0.0 1.0 0.00 0.00 0.00 90 1013.4
20260503071558 53 278 0.0 0.0 0.00 0.00 0.00 90 1013.3
20260503071053 53 0 0.0 1.0 0.00 0.00 0.00 90 1013.3
20260503070553 53 0 0.0 1.0 0.00 0.00 0.00 90 1013.4
20260503055052 53 0 0.0 0.0 0.00 0.00 0.00 90 1013.9
20260503054556 53 0 0.0 0.0 0.00 0.00 0.00 90 1014.0
20260503054049 53 0 0.0 0.0 0.00 0.00 0.00 90 1014.0
20260503053551 53 0 0.0 0.0 0.00 0.00 0.00 90 1013.9
20260503053102 53 0 0.0 0.0 0.00 0.00 0.00 90 1013.9
20260503052549 53 0 0.0 3.0 0.00 0.00 0.00 90 1013.9
20260503052053 53 0 0.0 3.0 0.00 0.00 0.00 90 1014.0
20260503051555 53 0 0.0 3.0 0.00 0.00 0.00 90 1013.9
20260503051049 53 0 0.0 0.0 0.00 0.00 0.00 90 1013.8
20260503050549 53 0 0.0 0.0 0.00 0.00 0.00 90 1014.0
20260503050058 53 0 0.0 0.0 0.00 0.00 0.00 90 1014.1
20260503045549 53 0 0.0 1.0 0.00 0.00 0.00 90 1014.0
20260503045052 53 0 0.0 3.0 0.00 0.00 0.00 90 1014.0
20260503044557 53 0 0.0 3.0 0.00 0.00 0.00 90 1014.0
20260503044052 53 302 0.0 3.0 0.00 0.00 0.00 90 1014.0
20260503043549 53 0 0.0 4.0 0.00 0.00 0.00 90 1014.0
20260503043101 53 0 0.0 4.0 0.00 0.00 0.00 90 1014.0
20260503042549 53 260 0.0 3.0 0.00 0.00 0.00 90 1013.8
20260503042049 53 0 0.0 0.0 0.00 0.00 0.00 90 1013.9
20260503041553 53 0 0.0 1.0 0.00 0.00 0.00 90 1013.9
20260503041049 53 0 0.0 1.0 0.00 0.00 0.00 90 1013.9
20260503040549 53 0 0.0 4.0 0.00 0.00 0.00 90 1013.8
20260503040056 53 269 0.0 4.0 0.00 0.00 0.00 90 1013.7
20260503035549 53 0 0.0 4.0 0.00 0.00 0.00 90 1013.6
20260503035049 53 0 0.0 3.0 0.00 0.00 0.00 90 1013.6
20260503034555 53 0 1.0 3.0 0.00 0.00 0.00 90 1013.6
20260503034052 53 330 0.0 2.0 0.00 0.00 0.00 91 1013.6
20260503033549 53 271 0.0 1.0 0.00 0.00 0.00 90 1013.5
20260503033058 53 0 0.0 1.0 0.00 0.00 0.00 91 1013.4
20260503032548 53 0 0.0 4.0 0.00 0.00 0.00 90 1013.2
20260503032049 53 0 0.0 4.0 0.00 0.00 0.00 90 1013.2
20260503031608 53 294 0.0 4.0 0.00 0.00 0.00 90 1013.1
20260503031049 53 0 0.0 4.0 0.00 0.00 0.00 89 1013.0
20260503030552 53 308 1.0 2.0 0.00 0.00 0.00 89 1013.0
20260503030051 53 0 0.0 1.0 0.00 0.00 0.00 89 1013.0
20260503025551 53 0 0.0 1.0 0.00 0.00 0.00 89 1013.0
20260503025049 54 0 0.0 1.0 0.00 0.00 0.00 89 1013.0
20260503024554 54 6 0.0 1.0 0.00 0.00 0.00 88 1013.0
20260503024052 54 0 0.0 1.0 0.00 0.00 0.00 88 1012.9
20260503023552 54 0 0.0 1.0 0.00 0.00 0.00 88 1013.0
20260503023055 54 0 0.0 2.0 0.00 0.00 0.00 88 1013.0
20260503022549 54 0 0.0 2.0 0.00 0.00 0.00 87 1013.0
20260503022049 54 0 0.0 4.0 0.00 0.00 0.00 87 1013.0
20260503021551 54 266 0.0 5.0 0.00 0.00 0.00 87 1013.0
20260503021049 54 271 0.0 5.0 0.00 0.00 0.00 87 1013.0
20260503020549 54 0 1.0 3.0 0.00 0.00 0.00 86 1013.0
20260503020058 54 0 0.0 1.0 0.00 0.00 0.00 87 1013.1
20260503015550 54 0 0.0 4.0 0.00 0.00 0.00 87 1013.1
20260503015050 54 0 0.0 4.0 0.00 0.00 0.00 87 1013.1
20260503014558 55 280 0.0 3.0 0.00 0.00 0.00 87 1013.1
20260503014051 55 0 0.0 5.0 0.00 0.00 0.00 86 1013.2
20260503013552 55 251 0.0 5.0 0.00 0.00 0.00 86 1013.2
20260503013051 55 110 1.0 3.0 0.00 0.00 0.00 85 1013.2
20260503012550 55 268 0.0 4.0 0.00 0.00 0.00 84 1013.2
20260503012049 55 18 0.0 5.0 0.00 0.00 0.00 85 1013.3
20260503011605 55 267 2.0 5.0 0.00 0.00 0.00 84 1013.3
20260503011049 55 335 0.0 3.0 0.00 0.00 0.00 85 1013.3
20260503010551 55 0 0.0 4.0 0.00 0.00 0.00 86 1013.3
20260503010052 55 0 1.0 5.0 0.00 0.00 0.00 85 1013.4
20260503005549 55 282 1.0 5.0 0.00 0.00 0.00 84 1013.3
20260503005048 55 278 1.0 5.0 0.00 0.00 0.00 84 1013.4
20260503004614 55 279 2.0 5.0 0.00 0.00 0.00 84 1013.3
20260503004049 55 96 2.0 4.0 0.00 0.00 0.00 83 1013.3
20260503003550 56 278 0.0 4.0 0.00 0.00 0.00 83 1013.3
20260503003053 56 184 0.0 5.0 0.00 0.00 0.00 84 1013.3
20260503002549 56 268 1.0 5.0 0.00 0.00 0.00 83 1013.4
20260503002049 56 243 1.0 6.0 0.00 0.00 0.00 82 1013.5
20260503001554 56 67 0.0 6.0 0.00 0.00 0.00 81 1013.5
20260503001051 56 8 0.0 4.0 0.00 0.00 0.00 81 1013.5
20260503000551 56 304 1.0 4.0 0.00 0.00 0.00 81 1013.5
20260503000110 56 181 1.0 3.0 0.00 0.00 0.00 81 1013.6
20260502235549 56 46 1.0 7.0 0.00 0.00 0.00 80 1013.6
20260502235051 56 87 2.0 7.0 0.00 0.00 0.00 79 1013.6
20260502234559 56 282 2.0 7.0 0.00 0.00 0.00 79 1013.7
20260502234050 56 355 1.0 5.0 0.00 0.00 0.00 79 1013.7
20260502233552 56 147 1.0 5.0 0.00 0.00 0.00 79 1013.8
20260502233051 57 289 2.0 4.0 0.00 0.00 0.00 78 1013.7
20260502232549 57 261 1.0 6.0 0.00 0.00 0.00 79 1013.7
20260502232049 57 178 1.0 6.0 0.00 0.00 0.00 79 1013.7
20260502231615 58 261 1.0 5.0 0.00 0.00 0.00 76 1013.9
20260502231049 58 326 1.0 6.0 0.00 0.00 0.00 76 1014.0
20260502230552 58 304 1.0 6.0 0.00 0.00 0.00 77 1014.0
20260502230054 58 274 1.0 6.0 0.00 0.00 0.00 77 1014.2
20260502225550 58 245 1.0 6.0 0.00 0.00 0.00 77 1014.3
20260502225048 58 266 1.0 6.0 0.00 0.00 0.00 78 1014.3
20260502224557 58 270 2.0 6.0 0.00 0.00 0.00 76 1014.4
20260502224051 58 253 1.0 4.0 0.00 0.00 0.00 77 1014.4
20260502223552 58 330 1.0 4.0 0.00 0.00 0.00 78 1014.5
20260502223053 58 300 2.0 9.0 0.00 0.00 0.00 75 1014.6
20260502222550 58 295 1.0 9.0 0.00 0.00 0.00 77 1014.6
20260502222049 58 283 3.0 8.0 0.00 0.00 0.00 76 1014.6
20260502221558 59 307 2.0 8.0 0.00 0.00 0.00 76 1014.7
20260502221051 59 195 2.0 6.0 0.00 0.00 0.00 74 1014.7
20260502220549 60 291 1.0 5.0 0.00 0.00 0.00 75 1014.8
20260502220058 60 283 1.0 3.0 0.00 0.00 0.00 74 1014.9
20260502215548 60 334 1.0 4.0 0.00 0.00 0.00 75 1014.9
20260502215051 59 309 1.0 7.0 0.00 0.00 0.00 76 1014.9
20260502214558 59 328 1.0 7.0 0.00 0.00 0.00 75 1014.9
20260502214049 59 326 1.0 7.0 0.00 0.00 0.00 75 1014.9
20260502213551 59 309 1.0 6.0 0.00 0.00 0.00 76 1015.0
20260502213054 59 297 1.0 6.0 0.00 0.00 0.00 75 1015.0
20260502212550 59 238 1.0 6.0 0.00 0.00 0.00 75 1014.9
20260502212052 59 279 1.0 4.0 0.00 0.00 0.00 75 1015.0
20260502211559 59 282 1.0 4.0 0.00 0.00 0.00 77 1014.9
20260502211051 59 271 1.0 7.0 0.00 0.00 0.00 76 1015.0
20260502210551 59 310 1.0 7.0 0.00 0.00 0.00 78 1015.2
20260502210051 59 262 1.0 6.0 0.00 0.00 0.00 77 1015.2
20260502205554 59 290 2.0 6.0 0.00 0.00 0.00 76 1015.3
20260502205048 59 264 1.0 4.0 0.00 0.00 0.00 78 1015.3
20260502204553 59 337 0.0 5.0 0.00 0.00 0.00 79 1015.3
20260502204047 58 269 0.0 6.0 0.00 0.00 0.00 80 1015.3
20260502203553 57 277 2.0 6.0 0.00 0.00 0.00 80 1015.3
20260502203056 58 282 2.0 6.0 0.00 0.00 0.00 80 1015.4
20260502202552 57 289 1.0 6.0 0.00 0.00 0.00 81 1015.5
20260502202053 57 273 2.0 6.0 0.00 0.00 0.00 81 1015.5
20260502201604 58 306 3.0 6.0 0.00 0.00 0.00 79 1015.5
20260502201054 58 274 2.0 5.0 0.00 0.00 0.00 81 1015.6
20260502200553 58 286 1.0 5.0 0.00 0.00 0.00 80 1015.6
20260502200058 59 79 1.0 4.0 0.00 0.00 0.00 79 1015.5
20260502195556 59 306 0.0 4.0 0.00 0.00 0.00 81 1015.6
20260502195052 58 0 1.0 4.0 0.00 0.00 0.00 82 1015.5
20260502194612 57 163 1.0 4.0 0.00 0.00 0.00 83 1015.6
20260502194052 57 346 0.0 6.0 0.00 0.00 0.00 85 1015.5
20260502193553 56 46 2.0 6.0 0.00 0.00 0.00 85 1015.5
20260502193106 56 356 1.0 6.0 0.00 0.00 0.00 86 1015.6
20260502192554 55 347 1.0 5.0 0.00 0.00 0.00 87 1015.6
20260502192052 55 315 1.0 5.0 0.00 0.00 0.00 87 1015.5
20260502191601 55 349 1.0 5.0 0.00 0.00 0.00 87 1015.7
20260502191052 55 281 1.0 5.0 0.00 0.00 0.00 88 1015.6
20260502190553 55 0 1.0 4.0 0.00 0.00 0.00 88 1015.6
20260502190054 55 271 0.0 4.0 0.00 0.00 0.00 89 1015.6
20260502185554 55 191 1.0 4.0 0.00 0.00 0.00 89 1015.7
20260502185053 55 276 1.0 4.0 0.00 0.00 0.00 88 1015.6
20260502184559 56 328 1.0 4.0 0.00 0.00 0.00 88 1015.7
20260502184056 56 285 0.0 3.0 0.00 0.00 0.00 88 1015.6
20260502183553 56 259 0.0 1.0 0.00 0.00 0.00 89 1015.6
20260502183055 56 259 0.0 1.0 0.00 0.00 0.00 88 1015.5
20260502182553 56 0 0.0 2.0 0.00 0.00 0.00 87 1015.6
20260502182052 56 0 0.0 2.0 0.00 0.00 0.00 88 1015.5
20260502181558 56 291 0.0 2.0 0.00 0.00 0.00 88 1015.4
20260502181052 56 65 0.0 2.0 0.00 0.00 0.00 89 1015.4
20260502180552 55 0 0.0 3.0 0.00 0.00 0.00 89 1015.4